This is the latest recevied weather packets stored in our database for station/object K7SKM. If no packets are shown the sender has not sent any weather packets the latest 10 day(s).
| Time | Temp. | Humidity | Pressure | Rain* | Wind** | Luminosity | Snow |
|---|---|---|---|---|---|---|---|
| 1787502321 | 18.33° C | 72% | 1025.3 hPa | 0 mm | - | 95 W/m² | - |
| 1787502017 | 18.33° C | 72% | 1025.3 hPa | 0 mm | - | 95 W/m² | - |
| 1787501713 | 18.33° C | 73% | 1025 hPa | 0 mm | - | 80 W/m² | - |
| 1787501409 | 17.78° C | 74% | 1025.3 hPa | 0 mm | - | 73 W/m² | - |
| 1787501105 | 17.78° C | 75% | 1025.2 hPa | 0 mm | - | 75 W/m² | - |
| 1787500800 | 17.22° C | 76% | 1025 hPa | 0 mm | - | 78 W/m² | - |
| 1787500496 | 17.22° C | 77% | 1025 hPa | 0 mm | - | 71 W/m² | - |
| 1787500191 | 16.67° C | 77% | 1025.2 hPa | 0 mm | - | 59 W/m² | - |
| 1787499885 | 16.67° C | 78% | 1025 hPa | 0 mm | - | 60 W/m² | - |
| 1787499580 | 16.67° C | 78% | 1025 hPa | 0 mm | - | 59 W/m² | - |
| 1787499275 | 16.11° C | 78% | 1024.8 hPa | 0 mm | - | 57 W/m² | - |
| 1787498971 | 16.11° C | 79% | 1024.9 hPa | 0 mm | - | 48 W/m² | - |
| 1787498669 | 16.11° C | 79% | 1024.8 hPa | 0 mm | - | 45 W/m² | - |
| 1787498365 | 16.11° C | 79% | 1024.9 hPa | 0 mm | - | 40 W/m² | - |
| 1787498061 | 15.56° C | 79% | 1024.7 hPa | 0 mm | - | 37 W/m² | - |
| 1787497761 | 15.56° C | 80% | 1024.7 hPa | 0 mm | - | 36 W/m² | - |
| 1787497457 | 15.56° C | 80% | 1024.6 hPa | 0 mm | - | 34 W/m² | - |
| 1787497155 | 15.56° C | 81% | 1024.7 hPa | 0 mm | - | 32 W/m² | - |
| 1787496850 | 15.56° C | 81% | 1024.5 hPa | 0 mm | - | 31 W/m² | - |
| 1787496546 | 15.56° C | 81% | 1024.6 hPa | 0 mm | - | 29 W/m² | - |
| 1787496240 | 15.56° C | 81% | 1024.6 hPa | 0 mm | - | 29 W/m² | - |
| 1787495939 | 15° C | 82% | 1024.7 hPa | 0 mm | - | 26 W/m² | - |
| 1787495635 | 15° C | 82% | 1024.5 hPa | 0 mm | - | 27 W/m² | - |
| 1787495331 | 15° C | 82% | 1024.5 hPa | 0 mm | - | 23 W/m² | - |
| 1787495027 | 15° C | 82% | 1024.7 hPa | 0 mm | - | 12 W/m² | - |
* Rain latest hour (hover to see other rain measurements)
** Current wind speed in m/s (hover to see current wind gust speed)